Domov               UVHVVR             MKGP            O straneh              
ZDRAVSTVENO VARSTVO RASTLIN
  MREŽA AGROMET. POSTAJ
 ► PROGNOSTIČNA OBVESTILA
AGROMETEOROLOŠKI PODATKI -
ARSO
OBVLADOVANJE TVEGANJ ZARADI
NEUGODNIH VREMENSKIH RAZMER
  ► NARAVNE NESREČE
  ► SUŠA/MOČA
  ► NAMAKANJE
  ► ŽLED (gozdarstvo)
KARTOGRAFSKI PRIKAZI
SPLETNE POVEZAVE
PROJEKTI IN PUBLIKACIJE

AGROMETEOROLOŠKA MREŽA: VREMENSKE POSTAJE IN FENOLOŠKA OPAZOVANJA

Pregled podatkov za lokacijo Dorfarje, meteorološka postaja 41375

Pregled senzorjev na lokaciji

ID Ime Zadnja
vrednost
Datum
zadnje
spremembe
Tip
senzorja
3849 Omočenost lista (U) 0 U 25.2.2018 16:00 A730WET
4184 Omočenost lista 20 cm (U) 9 U 25.2.2018 16:00 A730WET
3846 Padavine (mm) 0 mm 25.2.2018 16:00 Generic 0.2 mm
3847 Relativna vlaga 2 m (% RH) 52,87 % RH 25.2.2018 16:00 Generic 0 - 100 %
3950 Relativna vlaga 20 cm (% RH) 99,93 % RH 25.2.2018 16:00 Generic 0 - 100 %
3848 Temperatura 2 m (°C) -4,59 °C 25.2.2018 16:00 Generic -40 - +60 °C
3949 Temperatura 20 cm (°C) -0,54 °C 25.2.2018 16:00 Generic -40 - +60 °C

Pregled podatkov zadnjih 24 ur

Zap.
št.
Datum in čas Dorfarje
Omočenost
lista
Omočenost
lista
20
cm
Padavine Relativna
vlaga
2
m
Relativna
vlaga
20
cm
Temperatura
2
m
Temperatura
20
cm
1 25.2.2018 16:00 0 9 0 52,9 99,9 -4,6 -0,5
2 25.2.2018 15:30 0 9 0 50,6 99,9 -4,3 -0,1
3 25.2.2018 15:00 0 9 0 48,5 99,9 -4 0,1
4 25.2.2018 14:30 0 8 0 46,9 99,9 -3,9 0,4
5 25.2.2018 14:00 0 5 0 45,1 99,9 -2,9 0,9
6 25.2.2018 13:30 0 0 0 46,6 99,9 -3,3 0,4
7 25.2.2018 13:00 0 0 0 47,1 99,9 -3,9 0,2
8 25.2.2018 12:30 0 0 0 46,6 99,9 -4,1 -0,2
9 25.2.2018 12:00 0 0 0 45,3 99,9 -4,1 0,1
10 25.2.2018 11:30 0 0 0 48 99,9 -5 -0,3
11 25.2.2018 11:00 0 0 0 47,9 99,9 -5,2 -0,8
12 25.2.2018 10:30 0 0 0 49,1 99,9 -5,3 -0,6
13 25.2.2018 10:00 0 0 0 51,1 99,9 -5,5 -0,8
14 25.2.2018 09:30 0 0 0 54,6 99,9 -6,1 -1,3
15 25.2.2018 09:00 0 0 0 57 99,9 -6,4 -1,8
16 25.2.2018 08:30 0 0 0 60,6 99,9 -7,1 -2,3
17 25.2.2018 08:00 0 0 0 65,5 99,9 -7,9 -2,5
18 25.2.2018 07:30 0 0 0 66,1 99,9 -7,9 -2,4
19 25.2.2018 07:00 0 0 0 62,8 99,9 -7,2 -2,4
20 25.2.2018 06:30 0 1 0 60,9 99,9 -6,9 -2,5
21 25.2.2018 06:00 0 1 0 59,8 99,9 -6,7 -2,7
22 25.2.2018 05:30 0 1 0 60,4 99,9 -6,6 -2,9
23 25.2.2018 05:00 0 2 0 61 99,9 -6,5 -2,9
24 25.2.2018 04:30 0 4 0 60,4 99,9 -6,2 -2,6
25 25.2.2018 04:00 0 9 0 61 99,9 -5,9 -2,1
26 25.2.2018 03:30 0 9 0 63,5 99,9 -5,6 -1,7
27 25.2.2018 03:00 0 9 0 65,6 99,9 -5,4 -1,5
28 25.2.2018 02:30 0 10 0 67,8 99,9 -5,3 -1,3
29 25.2.2018 02:00 0 10 0 68,9 99,9 -5,3 -1,1
30 25.2.2018 01:30 0 10 0 69,2 99,9 -5,2 -1
31 25.2.2018 01:00 0 10 0 70,6 99,9 -4,9 -0,8
32 25.2.2018 00:30 0 10 0 71,2 99,9 -4,5 -0,7
33 25.2.2018 00:00 0 9 0 69,7 99,9 -4,2 -0,5
34 24.2.2018 23:30 0 9 0 67,7 99,9 -4 -0,5
35 24.2.2018 23:00 0 9 0 67,5 99,9 -3,8 -0,4
36 24.2.2018 22:30 0 9 0 68,7 99,9 -3,6 -0,4
37 24.2.2018 22:00 0 9 0 69,7 99,9 -3,4 -0,4
38 24.2.2018 21:30 0 8 0 69,6 99,9 -3,3 -0,4
39 24.2.2018 21:00 0 8 0 69 99,9 -3,2 -0,3
40 24.2.2018 20:30 0 8 0 71,3 99,9 -3 -0,2
41 24.2.2018 20:00 0 8 0 78 99,9 -3,2 -0,2
42 24.2.2018 19:30 0 8 0 78,7 99,9 -3 -0,2
43 24.2.2018 19:00 0 8 0 80,3 99,9 -2,7 -0,1
44 24.2.2018 18:30 0 7 0 82,7 99,9 -2,4 0
45 24.2.2018 18:00 0 7 0 83,5 99,9 -2,2 0
46 24.2.2018 17:30 0 7 0 83,4 99,9 -2 0,1
47 24.2.2018 17:00 0 6 0 83 99,9 -1,8 0,2
48 24.2.2018 16:30 0 6 0 83,5 99,9 -1,4 0,2
© 2011 Ministrstvo za kmetijstvo, gozdarstvo in prehrano. Vse pravice pridržane.